Tacoma Narrows, WA
on Monday, February 25, 2013

Monday
Previous Day Next Day
Daily Summary
 ActualAverageRecord
Temperature
Mean Temperature °F °F  
Max Temperature 48°F 47°F 57°F (2002)
Min Temperature 37°F 36°F 26°F (2011)
Degree Days
Heating Degree Days 22    
Moisture
Dew Point 35°F   
Average Humidity 74    
Maximum Humidity 89    
Minimum Humidity 43    
Precipitation
Precipitation 0.09 in in in ()
Wind
Wind Speed 16 mph   
Max Wind Speed 21 mph   
Max Gust Speed 34 mph   
Visibility 10 miles   
Events Rain   
Averages and records for this station are not official NWS values.
Key: T is trace of precipitation, MM is missing value
Source: NWS Daily Summary
Seasonal Weather Averages
Time(PST)TemperatureDew PointHumidity Pressure Visibility Wind DirectionWind SpeedGust SpeedPrecipitationEvents Conditions
12:43 AM 44.6°F 35.6°F 71% 29.93 in 10.0 miles South 18.4 mph 26.5 mph 0.01 in Rain Light Rain
12:53 AM 44.1°F 35.1°F 71% 29.93 in 10.0 miles South 16.1 mph 25.3 mph 0.02 in Rain Light Rain
1:50 AM 42.8°F 37.4°F 81% 29.91 in 10.0 miles South 20.7 mph 26.5 mph 0.04 in Rain Light Rain
1:53 AM 42.1°F 37.0°F 82% 29.92 in 10.0 miles South 18.4 mph 26.5 mph 0.05 in Rain Light Rain
2:20 AM 42.8°F 37.4°F 81% 29.92 in 10.0 miles South 19.6 mph 27.6 mph 0.01 in Rain Light Rain
2:48 AM 42.8°F 37.4°F 81% 29.92 in 9.0 miles South 20.7 mph 34.5 mph 0.02 in   Overcast
2:53 AM 42.1°F 37.0°F 82% 29.93 in 8.0 miles South 17.3 mph 31.1 mph 0.02 in   Overcast
3:37 AM 42.8°F 37.4°F 81% 29.93 in 10.0 miles South 18.4 mph 25.3 mph N/A   Mostly Cloudy
3:53 AM 42.1°F 37.0°F 82% 29.94 in 10.0 miles South 15.0 mph 26.5 mph N/A   Overcast
4:16 AM 42.8°F 37.4°F 81% 29.95 in 10.0 miles South 13.8 mph 19.6 mph N/A   Mostly Cloudy
4:53 AM 41.0°F 37.9°F 89% 29.97 in 10.0 miles South 17.3 mph 24.2 mph 0.00 in   Mostly Cloudy
5:53 AM 41.0°F 37.0°F 86% 30.00 in 10.0 miles SSW 13.8 mph 24.2 mph 0.00 in   Overcast
6:53 AM 41.0°F 36.0°F 82% 29.99 in 10.0 miles SSW 16.1 mph 24.2 mph 0.00 in Rain Light Rain
7:53 AM 39.9°F 36.0°F 86% 30.02 in 10.0 miles SSW 15.0 mph 21.9 mph 0.00 in   Overcast
8:53 AM 42.1°F 36.0°F 79% 30.04 in 10.0 miles SSW 11.5 mph 29.9 mph N/A   Mostly Cloudy
9:33 AM 44.6°F 35.6°F 71% 30.05 in 10.0 miles SSW 13.8 mph 23.0 mph N/A   Scattered Clouds
9:53 AM 44.6°F 35.6°F 71% 30.05 in 10.0 miles SSW 12.7 mph 27.6 mph N/A   Mostly Cloudy
10:53 AM 46.0°F 34.0°F 63% 30.08 in 10.0 miles SW 18.4 mph 27.6 mph N/A   Mostly Cloudy
11:53 AM 46.0°F 33.1°F 61% 30.11 in 10.0 miles SW 19.6 mph 33.4 mph N/A   Scattered Clouds
12:53 PM 46.9°F 35.1°F 63% 30.13 in 10.0 miles SW 16.1 mph 23.0 mph N/A   Mostly Cloudy
1:53 PM 48.9°F 30.0°F 48% 30.13 in 10.0 miles SW 16.1 mph 24.2 mph N/A   Scattered Clouds
2:53 PM 48.9°F 27.0°F 43% 30.14 in 10.0 miles SW 17.3 mph 27.6 mph N/A   Clear
3:53 PM 46.0°F 32.0°F 58% 30.15 in 10.0 miles SW 16.1 mph 27.6 mph N/A   Scattered Clouds
4:53 PM 44.1°F 33.1°F 65% 30.18 in 10.0 miles SW 17.3 mph 34.5 mph N/A   Scattered Clouds
5:53 PM 43.0°F 32.0°F 65% 30.20 in 10.0 miles SW 10.4 mph 21.9 mph N/A   Clear
6:53 PM 42.1°F 32.0°F 67% 30.22 in 10.0 miles SW 13.8 mph 24.2 mph N/A   Scattered Clouds
7:53 PM 41.0°F 33.1°F 73% 30.25 in 10.0 miles SSW 6.9 mph - N/A   Scattered Clouds
8:53 PM 41.0°F 33.1°F 73% 30.27 in 10.0 miles SSW 8.1 mph - N/A   Clear
9:53 PM 39.0°F 33.1°F 79% 30.29 in 10.0 miles SSW 10.4 mph - N/A   Clear
10:53 PM 37.9°F 33.1°F 83% 30.30 in 10.0 miles South 6.9 mph - N/A   Clear
11:53 PM 37.9°F 33.1°F 83% 30.31 in 10.0 miles South 9.2 mph - N/A   Clear
Moon Phase
Feb. 25 Feb. 25 Mar. 04 Mar. 11 Mar. 19
Sunrise:06:57 AM (PST) Moon Rise:06:13 PM (PST)2/25
Sunset:05:50 PM (PST) Moon Set:06:27 AM (PST)2/25

Copyright © 2014 The Weather Underground, Inc.